Fort Polk, LA

4:27 PM CST on February 20, 2018 (GMT -0600)
Fort Polk

Weather History for KAQV - July, 2013

Change the Weather History Date:

Tuesday, July 16, 2013

  Actual Average (KPOE) Record (KPOE)
Temperature  
Mean Temperature 81 °F -  
Max Temperature 91 °F 90 °F 100 °F (2000)
Min Temperature 71 °F 71 °F 68 °F (2008)
Cooling Degree Days 16    
Growing Degree Days 31 (Base 50)    
Moisture  
Dew Point 71 °F    
Average Humidity 75    
Maximum Humidity 96    
Minimum Humidity 47    
Precipitation  
Precipitation 0.00 in - - ()
Sea Level Pressure  
Sea Level Pressure 30.11 in    
Wind  
Wind Speed 2 mph (ENE)    
Max Wind Speed 10 mph    
Max Gust Speed 22 mph    
Visibility 10 miles    
Events      
Averages and records for this station are not official NWS values.
T = Trace of Precipitation, MM = Missing Value Source: NWS Daily Summary

Daily Weather History Graph

Daily Weather History Graph

Search for Another Location

Airport or City:

Trip Planner

Search our weather history database for the weather conditions in past years. The results will help you decide how hot, cold, wet, or windy it might be!

Date:

Astronomy

Jul. 16, 2013 Rise Set
Actual Time 6:19 AM CDT 8:18 PM CDT
Civil Twilight 5:52 AM CDT 8:45 PM CDT
Nautical Twilight 5:19 AM CDT 9:18 PM CDT
Astronomical Twilight 4:44 AM CDT 9:54 PM CDT
Moon 2:09 PM CDT (7/16) 12:38 AM CDT (7/16)
Length of Visible Light 14h 53m
Length of Day
13h 58m
First Quarter, 56% of the Moon is Illuminated
Jul 16
First Quarter
Jul 22
Full
Jul 29
Last Quarter
Aug 6
New
Aug 14
First Quarter

Hourly Weather History & Observations

Time (CDT) Temp. Heat Index Dew Point Humidity Pressure Visibility Wind Dir Wind Speed Gust Speed Precip Events Conditions
12:56 AM 73.0 °F - 71.1 °F 93% 30.10 in 10.0 mi Calm Calm - N/A   Clear
1:56 AM 72.0 °F - 70.0 °F 93% 30.09 in 9.0 mi Calm Calm - N/A   Clear
2:56 AM 71.1 °F - 69.1 °F 93% 30.08 in 9.0 mi Calm Calm - N/A   Clear
3:56 AM 73.0 °F - 71.1 °F 93% 30.08 in 10.0 mi Calm Calm - N/A   Clear
4:56 AM 73.0 °F - 71.1 °F 93% 30.08 in 10.0 mi Calm Calm - N/A   Clear
5:56 AM 73.0 °F - 71.1 °F 93% 30.10 in 10.0 mi Calm Calm - N/A   Partly Cloudy
6:28 AM 73.4 °F - 71.6 °F 94% 30.11 in 8.0 mi Calm Calm - N/A   Scattered Clouds
6:56 AM 73.0 °F - 72.0 °F 96% 30.11 in 10.0 mi Calm Calm - N/A   Clear
7:56 AM 77.0 °F - 72.0 °F 84% 30.12 in 10.0 mi ENE 3.5 mph - N/A   Clear
8:56 AM 82.0 °F 87.4 °F 73.0 °F 74% 30.13 in 10.0 mi Variable 4.6 mph - N/A   Clear
9:56 AM 82.9 °F 88.0 °F 72.0 °F 69% 30.13 in 10.0 mi Variable 5.8 mph - N/A   Clear
10:56 AM 84.9 °F 90.7 °F 72.0 °F 65% 30.13 in 10.0 mi Variable 4.6 mph - N/A   Partly Cloudy
11:56 AM 88.0 °F 93.8 °F 71.1 °F 57% 30.12 in 10.0 mi Variable 6.9 mph - N/A   Partly Cloudy
12:56 PM 88.0 °F 91.4 °F 68.0 °F 51% 30.12 in 10.0 mi East 8.1 mph - N/A   Scattered Clouds
1:56 PM 89.1 °F 92.9 °F 68.0 °F 50% 30.11 in 10.0 mi ESE 8.1 mph - N/A   Mostly Cloudy
2:56 PM 91.0 °F 95.2 °F 68.0 °F 47% 30.08 in 10.0 mi ENE 10.4 mph 18.4 mph 0.00 in   Scattered Clouds
3:56 PM 89.1 °F 93.7 °F 69.1 °F 52% 30.06 in 10.0 mi East 8.1 mph 21.9 mph N/A   Mostly Cloudy
4:56 PM 89.1 °F 94.1 °F 70.0 °F 53% 30.07 in 10.0 mi NE 9.2 mph 21.9 mph N/A   Partly Cloudy
5:56 PM 87.1 °F 92.8 °F 71.1 °F 59% 30.07 in 10.0 mi NE 5.8 mph - N/A   Mostly Cloudy
6:56 PM 84.9 °F 90.7 °F 72.0 °F 65% 30.09 in 10.0 mi Variable 3.5 mph - 0.00 in   Scattered Clouds
7:56 PM 81.0 °F 85.2 °F 72.0 °F 74% 30.10 in 10.0 mi Calm Calm - N/A   Clear
8:56 PM 80.1 °F 84.2 °F 73.0 °F 79% 30.12 in 10.0 mi Calm Calm - N/A   Clear
9:56 PM 78.1 °F - 73.9 °F 87% 30.14 in 10.0 mi Calm Calm - N/A   Scattered Clouds
10:56 PM 78.1 °F - 72.0 °F 81% 30.16 in 10.0 mi Calm Calm - N/A   Clear
11:56 PM 77.0 °F - 72.0 °F 84% 30.16 in 10.0 mi Calm Calm - N/A   Clear